Location: Newark
(35.2672°N, 80.7344°W)
Time: 23:19:31
(UTC+00:00)

Tiros 1 despin weight - Visible Passes

Search period start: 22 January 2020 00:00
Search period end: 01 February 2020 00:00
Orbit: 594 x 643 km, 48.2° (Epoch: 22 January)

Date Brightness Start Highest point End Pass type
(mag) Time Alt. Az. Time Alt. Az. Time Alt. Az.
22 Jan ? 01:14:37 10° WNW 01:18:10 29° WSW 01:18:10 29° WSW visible
22 Jan ? 23:49:11 10° NW 23:53:53 89° SW 23:58:05 13° SE visible
23 Jan ? 01:32:29 10° W 01:34:56 14° SW 01:35:14 14° SW visible
24 Jan ? 00:05:53 10° WNW 00:10:21 45° SW 00:14:48 10° SSE visible
25 Jan ? 00:23:05 10° W 00:26:40 22° SW 00:30:15 10° S visible
26 Jan ? 23:14:11 10° WNW 23:18:22 33° SW 23:22:33 10° SSE visible
27 Jan ? 23:31:48 10° W 23:34:38 16° SW 23:37:28 10° SSW visible
